KJZI

Details ICAO KJZI
Name Charleston Executive
Region United States
Timezone America/New_York (UTC-4.0)
Plans Departing 34
Arriving 44
Stats Elevation 17 ft / 5 m (AMSL)
Location 32.700788° -80.002515°
Runways 2
Magnetic Variation 7.911° W
Sunrise 2018-05-20 10:19:33 UTC / 2018-05-20 06:19:33 Local
Sunset 2018-05-21 00:16:24 UTC / 2018-05-20 20:16:24 Local
Advertisement - Login to hide

Runways

ID Width Length Bearing (true) Bearing (mag) Surface Threshold Offset Overrun Length
04 151 ft / 46 m 4,317 ft / 1,316 m 33.10° 41.01° Concrete 0 ft / 0 m 0 ft / 0 m
09 98 ft / 30 m 5,355 ft / 1,632 m 89.24° 97.15° Concrete 0 ft / 0 m 0 ft / 0 m
22 151 ft / 46 m 4,317 ft / 1,316 m 213.10° 221.01° Concrete 0 ft / 0 m 551 ft / 168 m
27 98 ft / 30 m 5,355 ft / 1,632 m 269.25° 277.16° Concrete 0 ft / 0 m 0 ft / 0 m

Approach Navaids

Runway Type Ident Frequency Range Bearing (true) Bearing (mag) Slope Elevation
09 Localiser IETI 110.70 MHz 18 nm / 33 km 86.00° 93.91° - 17 ft / 5 m (AMSL)

Map

Weather


0- 5 10 15 20 25 30 35+ Temperature / ° C

Clouds and Precipitation
Forecast for 2018-05-21 00:00 UTC. Updated 2 hours ago

Ground ~20,000 ft ~40,000 ft Winds

METAR

KJZI 210115Z AUTO 00000KT 10SM CLR 23/22 A3015 RMK AO2

TAF

Not found

Frequencies

Recorded 123.77 MHz AWOS 3
Clearance 127.15 MHz CLNC DEL
Unicom 122.80 MHz CTAF/UNICOM
Approach 120.70 MHz APP/DEP
Warning: Do not use this data for real-world aviation or navigation. No guarantee of current accuracy is given.